Coldwater, MI

5:25 AM EDT on April 24, 2018 (GMT -0400)
Branch County Memorial

Weather History for KOEB - February, 2013

Change the Weather History Date:

Wednesday, February 13, 2013

  Actual Average (KJYM) Record (KJYM)
Temperature  
Mean Temperature 32 °F -  
Max Temperature 41 °F 32 °F 56 °F (1961)
Min Temperature 23 °F 12 °F -13 °F (1979)
Degree Days  
Heating Degree Days 33    
Moisture  
Dew Point 24 °F    
Average Humidity 73    
Maximum Humidity 88    
Minimum Humidity 51    
Precipitation  
Precipitation 0.00 in - - ()
Sea Level Pressure  
Sea Level Pressure 29.79 in    
Wind  
Wind Speed 4 mph (SW)    
Max Wind Speed 12 mph    
Max Gust Speed 16 mph    
Visibility 10 miles    
Events      
Averages and records for this station are not official NWS values.
T = Trace of Precipitation, MM = Missing Value Source: NWS Daily Summary

Daily Weather History Graph

Daily Weather History Graph

Search for Another Location

Airport or City:

Astronomy

Feb. 13, 2013 Rise Set
Actual Time 7:38 AM EST 6:11 PM EST
Civil Twilight 7:09 AM EST 6:39 PM EST
Nautical Twilight 6:36 AM EST 7:12 PM EST
Astronomical Twilight 6:04 AM EST 7:44 PM EST
Moon 9:02 AM EST (2/13) 10:18 PM EST (2/13)
Length of Visible Light 11h 30m
Length of Day
10h 32m
Waxing Crescent, 13% of the Moon is Illuminated
Feb 13
Waxing Crescent
Feb 17
First Quarter
Feb 25
Full
Mar 4
Last Quarter
Mar 11
New

Hourly Weather History & Observations

Time (EST) Temp. Windchill Dew Point Humidity Pressure Visibility Wind Dir Wind Speed Gust Speed Precip Events Conditions
12:14 AM 27.5 °F - 21.0 °F 77% 29.92 in 10.0 mi Calm Calm - N/A   Overcast
12:34 AM 27.5 °F 19.3 °F 21.2 °F 77% 29.92 in 10.0 mi West 8.1 mph - N/A   Overcast
12:55 AM 27.5 °F 20.2 °F 21.2 °F 77% 29.91 in 10.0 mi WNW 6.9 mph - N/A   Overcast
1:14 AM 27.5 °F 21.1 °F 21.0 °F 77% 29.91 in 10.0 mi WNW 5.8 mph - N/A   Overcast
1:35 AM 27.9 °F 21.5 °F 21.2 °F 76% 29.90 in 10.0 mi WNW 5.8 mph - N/A   Overcast
1:54 AM 27.5 °F 21.1 °F 21.4 °F 78% 29.89 in 10.0 mi NW 5.8 mph - N/A   Overcast
2:14 AM 27.7 °F 22.4 °F 21.9 °F 79% 29.89 in 10.0 mi WNW 4.6 mph - N/A   Overcast
2:35 AM 27.5 °F 21.1 °F 21.7 °F 79% 29.89 in 10.0 mi WNW 5.8 mph - N/A   Overcast
2:54 AM 27.5 °F 21.1 °F 21.7 °F 79% 29.88 in 10.0 mi WSW 5.8 mph - N/A   Overcast
3:14 AM 27.3 °F 19.9 °F 21.7 °F 80% 29.88 in 10.0 mi West 6.9 mph - N/A   Overcast
3:35 AM 27.3 °F 22.0 °F 21.6 °F 79% 29.88 in 10.0 mi West 4.6 mph - N/A   Overcast
3:54 AM 27.0 °F 21.6 °F 21.2 °F 79% 29.87 in 10.0 mi WNW 4.6 mph - N/A   Overcast
4:14 AM 27.0 °F 19.5 °F 21.6 °F 80% 29.86 in 10.0 mi West 6.9 mph - N/A   Overcast
4:35 AM 26.6 °F 19.1 °F 21.2 °F 80% 29.86 in 10.0 mi WSW 6.9 mph - N/A   Overcast
4:54 AM 26.6 °F 21.2 °F 21.6 °F 81% 29.86 in 10.0 mi WSW 4.6 mph - N/A   Overcast
5:14 AM 26.6 °F 22.6 °F 21.4 °F 81% 29.85 in 10.0 mi West 3.5 mph - N/A   Overcast
5:35 AM 26.4 °F 20.9 °F 21.4 °F 81% 29.84 in 10.0 mi West 4.6 mph - N/A   Overcast
5:54 AM 26.4 °F - 21.2 °F 81% 29.84 in 10.0 mi Calm Calm - N/A   Overcast
6:14 AM 26.1 °F - 21.2 °F 82% 29.84 in 10.0 mi Calm Calm - N/A   Overcast
6:34 AM 25.7 °F - 21.0 °F 82% 29.83 in 10.0 mi Calm Calm - N/A   Overcast
6:54 AM 25.3 °F 21.1 °F 20.8 °F 83% 29.82 in 10.0 mi SSE 3.5 mph - N/A   Mostly Cloudy
7:15 AM 24.6 °F - 20.8 °F 86% 29.81 in 10.0 mi Calm Calm - N/A   Scattered Clouds
7:34 AM 24.3 °F - 20.8 °F 87% 29.80 in 7.0 mi Calm Calm - N/A   Clear
7:54 AM 23.9 °F - 20.8 °F 88% 29.80 in 5.0 mi Calm Calm - N/A   Clear
8:15 AM 24.1 °F - 20.7 °F 87% 29.81 in 5.0 mi Calm Calm - N/A   Clear
8:34 AM 24.8 °F - 21.2 °F 86% 29.81 in 7.0 mi Calm Calm - N/A   Clear
8:54 AM 26.1 °F - 22.1 °F 85% 29.81 in 7.0 mi Calm Calm - N/A   Clear
9:15 AM 27.1 °F - 21.9 °F 81% 29.81 in 7.0 mi Calm Calm - N/A   Clear
9:34 AM 27.7 °F - 21.7 °F 78% 29.80 in 7.0 mi Calm Calm - N/A   Scattered Clouds
9:54 AM 28.2 °F 22.0 °F 21.9 °F 77% 29.80 in 10.0 mi SSW 5.8 mph - N/A   Clear
10:15 AM 29.3 °F 24.3 °F 22.1 °F 75% 29.81 in 10.0 mi SSW 4.6 mph - N/A   Clear
10:34 AM 30.4 °F 23.6 °F 22.6 °F 73% 29.81 in 10.0 mi South 6.9 mph - N/A   Clear
10:54 AM 31.5 °F 26.8 °F 22.8 °F 70% 29.81 in 10.0 mi SSW 4.6 mph - N/A   Clear
11:15 AM 32.2 °F 26.7 °F 23.0 °F 69% 29.81 in 10.0 mi SSW 5.8 mph - N/A   Clear
11:34 AM 32.9 °F 27.5 °F 23.2 °F 67% 29.80 in 10.0 mi SW 5.8 mph - N/A   Clear
11:54 AM 34.2 °F - 23.5 °F 65% 29.80 in 10.0 mi North - - N/A   Clear
12:14 PM 35.6 °F 29.9 °F 23.9 °F 62% 29.79 in 7.0 mi WSW 6.9 mph - N/A   Clear
12:34 PM 35.4 °F 30.5 °F 23.2 °F 61% 29.78 in 10.0 mi SSW 5.8 mph - N/A   Clear
12:55 PM 37.0 °F 31.6 °F 23.5 °F 58% 29.77 in 10.0 mi WSW 6.9 mph - N/A   Clear
1:14 PM 38.1 °F 34.6 °F 23.9 °F 57% 29.76 in 10.0 mi WSW 4.6 mph - N/A   Clear
1:34 PM 38.8 °F 35.4 °F 24.3 °F 56% 29.75 in 10.0 mi WSW 4.6 mph - N/A   Clear
1:54 PM 38.8 °F 33.2 °F 24.3 °F 56% 29.74 in 10.0 mi WSW 8.1 mph - N/A   Clear
2:14 PM 39.7 °F 32.7 °F 25.0 °F 56% 29.73 in 10.0 mi SW 11.5 mph 16.1 mph N/A   Clear
2:35 PM 40.5 °F 34.6 °F 25.2 °F 54% 29.72 in 10.0 mi SW 9.2 mph - N/A   Clear
2:54 PM 40.5 °F 34.6 °F 25.3 °F 55% 29.72 in 10.0 mi SW 9.2 mph - N/A   Clear
3:14 PM 40.8 °F 35.6 °F 25.2 °F 54% 29.71 in 10.0 mi SW 8.1 mph - N/A   Clear
3:35 PM 41.2 °F 35.0 °F 25.9 °F 55% 29.71 in 10.0 mi SW 10.4 mph - N/A   Clear
3:54 PM 41.7 °F 36.7 °F 25.0 °F 52% 29.71 in 10.0 mi SW 8.1 mph - N/A   Clear
4:14 PM 41.5 °F 36.4 °F 24.6 °F 51% 29.71 in 10.0 mi WSW 8.1 mph - N/A   Clear
4:54 PM 41.7 °F 36.1 °F 25.7 °F 53% 29.71 in 10.0 mi WSW 9.2 mph - N/A   Clear
5:14 PM 40.6 °F 36.7 °F 25.7 °F 55% 29.71 in 10.0 mi WSW 5.8 mph - N/A   Clear
5:35 PM 39.6 °F 36.3 °F 26.1 °F 58% 29.72 in 10.0 mi WSW 4.6 mph - N/A   Clear
5:54 PM 37.4 °F - 25.9 °F 63% 29.72 in 10.0 mi Calm Calm - N/A   Clear
6:14 PM 37.2 °F - 25.9 °F 64% 29.72 in 10.0 mi Calm Calm - N/A   Clear
6:35 PM 36.7 °F 34.1 °F 26.1 °F 65% 29.73 in 10.0 mi SSW 3.5 mph - N/A   Clear
6:54 PM 35.4 °F 32.6 °F 26.1 °F 69% 29.73 in 10.0 mi SSW 3.5 mph - N/A   Clear
7:14 PM 35.2 °F 32.4 °F 26.4 °F 70% 29.73 in 10.0 mi SSW 3.5 mph - N/A   Clear
7:35 PM 35.6 °F 32.8 °F 26.4 °F 69% 29.74 in 10.0 mi SSW 3.5 mph - N/A   Scattered Clouds
7:54 PM 34.7 °F 30.6 °F 26.4 °F 72% 29.75 in 10.0 mi SSW 4.6 mph - N/A   Scattered Clouds
8:14 PM 34.2 °F 31.2 °F 26.6 °F 74% 29.75 in 10.0 mi SSW 3.5 mph - N/A   Clear
8:34 PM 33.8 °F 30.8 °F 26.4 °F 74% 29.74 in 10.0 mi SSW 3.5 mph - N/A   Clear
8:54 PM 33.4 °F 30.4 °F 26.6 °F 76% 29.75 in 10.0 mi South 3.5 mph - N/A   Clear
9:15 PM 33.8 °F - 26.8 °F 75% 29.74 in 10.0 mi Calm Calm - N/A   Clear
9:34 PM 33.3 °F - 26.6 °F 77% 29.75 in 10.0 mi Calm Calm - N/A   Scattered Clouds
9:54 PM 33.1 °F 28.7 °F 27.1 °F 79% 29.75 in 10.0 mi SSW 4.6 mph - N/A   Mostly Cloudy
10:15 PM 33.3 °F 27.9 °F 27.3 °F 79% 29.75 in 10.0 mi SSW 5.8 mph - N/A   Scattered Clouds
10:34 PM 33.1 °F 27.7 °F 27.5 °F 80% 29.75 in 10.0 mi SSW 5.8 mph - N/A   Clear
10:54 PM 32.9 °F 27.5 °F 27.5 °F 81% 29.74 in 10.0 mi SSW 5.8 mph - N/A   Clear
11:15 PM 32.9 °F 27.5 °F 27.9 °F 82% 29.75 in 10.0 mi SSW 5.8 mph - N/A   Clear
11:34 PM 32.4 °F 26.9 °F 27.9 °F 83% 29.75 in 10.0 mi SSW 5.8 mph - N/A   Clear
11:54 PM 32.2 °F 26.7 °F 28.0 °F 85% 29.75 in 7.0 mi SW 5.8 mph - N/A   Clear